GW2670 Weather Reports


time (UTC)temp
C
wind
direction
speed
KPH
gust
KPH
rain 1hr
cm
rain 24hr
cm
rain mn
cm
humidity
%
barometer
mb
20260507162011 17 208 6.4 12.9 0.00 0.08 0.08 53 1011.6
20260507161539 18 174 6.4 14.5 0.00 0.08 0.08 52 1011.6
20260507161013 17 180 8.0 14.5 0.00 0.08 0.08 53 1011.6
20260507160514 18 164 11.3 14.5 0.00 0.08 0.08 52 1011.6
20260507160035 18 221 8.0 16.1 0.00 0.08 0.08 52 1011.6
20260507155513 17 207 11.3 16.1 0.00 0.08 0.08 51 1011.7
20260507155014 18 218 3.2 19.3 0.00 0.08 0.08 52 1011.7
20260507154533 17 172 8.0 19.3 0.00 0.08 0.08 52 1011.6
20260507154015 17 161 9.7 19.3 0.00 0.08 0.08 54 1011.5
20260507153510 17 171 8.0 17.7 0.00 0.08 0.08 55 1011.6
20260507153030 17 146 3.2 16.1 0.00 0.08 0.08 57 1011.6
20260507152512 16 137 6.4 19.3 0.00 0.08 0.08 58 1011.7
20260507152013 16 207 11.3 19.3 0.00 0.08 0.08 56 1011.6
20260507151539 17 210 11.3 19.3 0.00 0.08 0.08 55 1011.6
20260507151013 17 196 8.0 17.7 0.00 0.08 0.08 54 1011.7
20260507150510 17 222 8.0 14.5 0.00 0.08 0.08 54 1011.8
20260507150030 17 182 8.0 16.1 0.00 0.08 0.08 54 1011.8
20260507145511 17 193 8.0 16.1 0.00 0.08 0.08 55 1011.8
20260507145012 17 177 9.7 16.1 0.00 0.08 0.08 54 1011.8
20260507144530 17 0 1.6 9.7 0.00 0.08 0.08 55 1011.9
20260507144014 17 220 3.2 9.7 0.00 0.08 0.08 52 1011.9
20260507143528 17 137 0.0 8.0 0.00 0.08 0.08 53 1011.9
20260507143027 17 221 1.6 8.0 0.00 0.08 0.08 52 1011.9
20260507142513 17 158 0.0 6.4 0.00 0.08 0.08 55 1012.0
20260507142015 17 45 1.6 9.7 0.00 0.08 0.08 53 1011.9
20260507141530 17 219 1.6 9.7 0.00 0.08 0.08 55 1011.9
20260507141013 17 191 4.8 9.7 0.00 0.08 0.08 51 1012.0
20260507140513 18 201 4.8 9.7 0.00 0.08 0.08 52 1012.0
20260507140032 18 232 4.8 9.7 0.00 0.08 0.08 51 1012.0
20260507135513 18 159 4.8 9.7 0.00 0.08 0.08 48 1012.2
20260507135014 18 192 3.2 9.7 0.00 0.08 0.08 50 1012.2
20260507134539 18 198 1.6 6.4 0.00 0.08 0.08 53 1012.2
20260507134012 17 148 0.0 6.4 0.00 0.08 0.08 55 1012.3
20260507133517 17 81 1.6 6.4 0.00 0.08 0.08 56 1012.4
20260507133029 17 0 1.6 6.4 0.00 0.08 0.08 55 1012.5
20260507132517 17 223 0.0 4.8 0.00 0.08 0.08 55 1012.5
20260507132019 17 213 1.6 4.8 0.00 0.08 0.08 51 1012.6
20260507131534 17 0 0.0 3.2 0.00 0.08 0.08 50 1012.6
20260507131010 17 0 0.0 6.4 0.00 0.08 0.08 50 1012.7
20260507130514 17 207 1.6 6.4 0.00 0.08 0.08 50 1012.7
20260507130029 17 181 1.6 6.4 0.00 0.08 0.08 52 1012.8
20260507125518 17 0 0.0 12.9 0.00 0.08 0.08 50 1012.8
20260507125014 17 198 3.2 12.9 0.00 0.08 0.08 51 1012.8
20260507124533 17 178 4.8 12.9 0.00 0.08 0.08 49 1012.9
20260507124011 18 198 1.6 6.4 0.00 0.08 0.08 50 1012.9
20260507123514 18 248 0.0 3.2 0.00 0.08 0.08 51 1012.9
20260507123029 18 275 0.0 6.4 0.00 0.08 0.08 54 1012.9
20260507122512 18 337 1.6 8.0 0.00 0.08 0.08 55 1012.8
20260507122015 18 340 3.2 8.0 0.00 0.08 0.08 52 1012.8
20260507121528 18 333 1.6 6.4 0.00 0.08 0.08 53 1012.7
20260507121014 18 263 1.6 6.4 0.00 0.08 0.08 48 1012.7
20260507120516 18 341 3.2 6.4 0.00 0.08 0.08 46 1012.8
20260507120030 18 297 1.6 4.8 0.00 0.08 0.08 54 1012.6
20260507115514 18 267 1.6 6.4 0.00 0.08 0.08 51 1012.7
20260507115010 17 0 1.6 6.4 0.00 0.08 0.08 50 1012.7
20260507114532 17 173 0.0 4.8 0.00 0.08 0.08 52 1012.9
20260507114013 17 200 0.0 6.4 0.00 0.08 0.08 54 1012.9
20260507113516 17 133 0.0 6.4 0.00 0.08 0.08 55 1013.0
20260507113033 17 0 0.0 1.6 0.00 0.08 0.08 58 1013.1
20260507112518 17 213 0.0 3.2 0.00 0.08 0.08 56 1013.1
20260507112015 17 228 0.0 3.2 0.00 0.08 0.08 59 1013.1
20260507111532 16 202 0.0 3.2 0.00 0.08 0.08 61 1013.2
20260507111015 16 148 1.6 3.2 0.00 0.08 0.08 57 1013.3
20260507110515 16 256 0.0 1.6 0.00 0.08 0.08 61 1013.4
20260507110045 16 0 0.0 0.0 0.00 0.08 0.08 60 1013.3
20260507105515 16 0 0.0 1.6 0.00 0.08 0.08 63 1013.2
20260507105017 16 0 0.0 4.8 0.00 0.08 0.08 67 1013.3
20260507104532 16 260 0.0 4.8 0.00 0.08 0.08 62 1013.2
20260507104015 16 338 1.6 4.8 0.00 0.08 0.08 59 1013.2
20260507103515 16 0 0.0 3.2 0.00 0.08 0.08 66 1013.2
20260507103035 16 333 0.0 6.4 0.00 0.08 0.08 62 1013.3
20260507102515 16 348 1.6 8.0 0.00 0.08 0.08 60 1013.2
20260507102016 16 337 3.2 8.0 0.00 0.08 0.08 60 1013.3
20260507101541 16 38 4.8 8.0 0.00 0.08 0.08 62 1013.3
20260507101018 16 24 4.8 8.0 0.00 0.08 0.08 62 1013.3
20260507100515 16 326 1.6 8.0 0.00 0.08 0.08 63 1013.3
20260507100036 16 332 3.2 8.0 0.00 0.08 0.08 65 1013.4
20260507095515 16 24 3.2 6.4 0.00 0.08 0.08 62 1013.4
20260507095016 16 347 1.6 6.4 0.00 0.08 0.08 68 1013.4
20260507094533 15 304 1.6 4.8 0.00 0.08 0.08 66 1013.4
20260507094015 15 331 0.0 4.8 0.00 0.08 0.08 65 1013.4
20260507093515 15 329 1.6 4.8 0.00 0.08 0.08 63 1013.5
20260507093030 15 346 1.6 8.0 0.00 0.08 0.08 65 1013.5
20260507092655 15 344 1.6 8.0 0.00 0.08 0.08 68 1013.6
20260507092014 15 21 3.2 8.0 0.00 0.08 0.08 69 1013.5
20260507091538 15 0 1.6 6.4 0.00 0.08 0.08 75 1013.6
20260507091015 14 360 1.6 4.8 0.00 0.08 0.08 73 1013.6
20260507090515 14 306 1.6 8.0 0.00 0.08 0.08 74 1013.5
20260507090038 13 27 3.2 8.0 0.00 0.08 0.08 74 1013.5
20260507085732 13 335 3.2 8.0 0.00 0.08 0.08 76 1013.6
20260507085021 13 13 3.2 8.0 0.00 0.08 0.08 76 1013.4
20260507084537 13 25 3.2 4.8 0.00 0.08 0.08 78 1013.5
20260507084012 13 27 1.6 8.0 0.00 0.08 0.08 80 1013.5
20260507083512 12 340 3.2 8.0 0.00 0.08 0.08 82 1013.5
20260507083037 12 11 1.6 6.4 0.00 0.08 0.08 83 1013.5
20260507082513 12 338 1.6 6.4 0.00 0.08 0.08 83 1013.5
20260507082014 12 10 1.6 6.4 0.00 0.08 0.08 82 1013.6
20260507081531 12 346 3.2 6.4 0.00 0.08 0.08 82 1013.5
20260507081138 12 9 3.2 11.3 0.00 0.08 0.08 84 1013.5
20260507080603 12 18 3.2 11.3 0.00 0.08 0.08 84 1013.4
20260507080041 12 23 4.8 8.0 0.00 0.08 0.08 85 1013.4
20260507075515 12 14 3.2 6.4 0.00 0.08 0.08 86 1013.5
20260507075014 11 9 3.2 6.4 0.00 0.08 0.08 87 1013.6
20260507074542 11 350 3.2 6.4 0.00 0.08 0.08 89 1013.6
20260507074015 11 334 3.2 6.4 0.00 0.08 0.08 90 1013.6
20260507073514 11 344 1.6 4.8 0.00 0.08 0.08 91 1013.7
20260507073028 10 0 0.0 3.2 0.00 0.08 0.08 93 1013.7
20260507072514 10 331 1.6 3.2 0.00 0.08 0.08 92 1013.7
20260507072013 10 350 1.6 3.2 0.00 0.08 0.08 93 1013.7
20260507071528 10 0 0.0 3.2 0.00 0.08 0.08 93 1013.6
20260507071015 9 344 1.6 3.2 0.00 0.08 0.08 93 1013.6
20260507070516 10 337 1.6 4.8 0.00 0.08 0.08 93 1013.6
20260507070034 9 341 0.0 4.8 0.00 0.08 0.08 93 1013.6
20260507065519 10 30 1.6 4.8 0.00 0.08 0.08 93 1013.6
20260507065014 10 214 0.0 4.8 0.00 0.08 0.08 94 1013.6
20260507064535 9 207 1.6 4.8 0.00 0.08 0.08 94 1013.6
20260507064016 9 207 0.0 3.2 0.00 0.08 0.08 94 1013.5
20260507063512 9 207 1.6 3.2 0.00 0.08 0.08 94 1013.6
20260507063035 9 205 0.0 3.2 0.00 0.08 0.08 94 1013.5
20260507062514 9 205 1.6 3.2 0.00 0.08 0.08 94 1013.5
20260507062014 9 202 0.0 1.6 0.00 0.08 0.08 94 1013.4
20260507061532 9 202 1.6 1.6 0.00 0.08 0.08 95 1013.5
20260507061015 9 204 0.0 0.0 0.00 0.08 0.08 95 1013.5
20260507060514 9 0 0.0 0.0 0.00 0.08 0.08 95 1013.5
20260507060029 9 0 0.0 0.0 0.00 0.08 0.08 95 1013.6
20260507055514 8 0 0.0 0.0 0.00 0.08 0.08 95 1013.5
20260507055011 8 0 0.0 0.0 0.00 0.08 0.08 95 1013.4
20260507054528 8 0 0.0 0.0 0.00 0.08 0.08 95 1013.4
20260507054016 8 0 0.0 0.0 0.00 0.08 0.08 95 1013.3
20260507053511 8 0 0.0 0.0 0.00 0.08 0.08 95 1013.4
20260507053030 8 0 0.0 0.0 0.00 0.08 0.08 95 1013.4
20260507052513 8 0 0.0 0.0 0.00 0.08 0.08 95 1013.4
20260507052014 8 0 0.0 0.0 0.00 0.08 0.08 95 1013.4
20260507051538 8 0 0.0 0.0 0.00 0.08 0.08 95 1013.3
20260507051013 8 0 0.0 0.0 0.00 0.08 0.08 95 1013.2
20260507050514 8 0 0.0 0.0 0.00 0.08 0.08 95 1013.3
20260507050039 8 0 0.0 0.0 0.00 0.08 0.08 95 1013.2
20260507045514 8 0 0.0 0.0 0.00 0.10 0.08 95 1013.2
20260507045014 8 0 0.0 0.0 0.00 0.10 0.08 95 1013.1
20260507044530 8 0 0.0 0.0 0.00 0.10 0.08 95 1013.1
20260507044014 8 0 0.0 1.6 0.00 0.10 0.08 95 1013.0
20260507043514 8 0 0.0 1.6 0.00 0.10 0.08 95 1013.0
20260507043028 8 0 0.0 0.0 0.00 0.10 0.08 95 1013.1
20260507042514 8 0 0.0 0.0 0.00 0.10 0.08 95 1013.1
20260507042253 8 0 0.0 0.0 0.00 0.10 0.08 95 1013.1
20260507042221 8 0 0.0 0.0 0.00 0.10 0.08 95 1013.1
20260507042151 8 0 0.0 0.0 0.00 0.10 0.08 95 1013.1
20260507041531 8 0 0.0 0.0 0.00 0.10 0.08 95 1013.1
20260507041014 8 0 0.0 0.0 0.00 0.10 0.08 95 1013.1
20260507040515 8 0 0.0 0.0 0.00 0.10 0.08 95 1013.0
20260507040030 8 0 0.0 0.0 0.00 0.10 0.08 95 1012.9
20260507035514 8 0 0.0 1.6 0.00 0.10 0.08 95 1012.9
20260507035015 8 0 0.0 1.6 0.00 0.10 0.08 95 1013.0
20260507034550 8 186 0.0 1.6 0.00 0.10 0.08 95 1013.0
20260507034016 8 0 0.0 0.0 0.00 0.10 0.08 94 1013.1
20260507033519 8 0 0.0 0.0 0.00 0.10 0.08 94 1013.0
20260507033036 8 0 0.0 0.0 0.00 0.10 0.08 95 1013.0
20260507032517 8 0 0.0 0.0 0.00 0.10 0.08 95 1013.0
20260507032012 8 0 0.0 0.0 0.00 0.10 0.08 95 1012.9
20260507031531 8 0 0.0 0.0 0.00 0.10 0.08 94 1013.0
20260507031012 8 0 0.0 0.0 0.00 0.10 0.08 94 1012.9
20260507030511 8 0 0.0 0.0 0.00 0.10 0.08 94 1012.9
20260507030028 8 0 0.0 0.0 0.00 0.10 0.08 94 1012.9
20260507025511 8 0 0.0 0.0 0.00 0.10 0.08 94 1012.9
20260507025011 8 0 0.0 0.0 0.00 0.10 0.08 94 1013.0
20260507024545 8 0 0.0 0.0 0.00 0.10 0.08 94 1012.9
20260507024014 8 0 0.0 0.0 0.00 0.10 0.08 94 1012.9
20260507023521 8 0 0.0 0.0 0.00 0.10 0.08 94 1012.8
20260507023028 8 0 0.0 0.0 0.00 0.10 0.08 94 1013.0
20260507022517 8 0 0.0 0.0 0.00 0.10 0.08 94 1012.9
20260507022017 8 0 0.0 0.0 0.00 0.10 0.08 94 1012.9
20260507021537 8 0 0.0 0.0 0.00 0.10 0.08 94 1013.0
20260507021012 8 0 0.0 0.0 0.00 0.10 0.08 94 1012.9
20260507020515 8 0 0.0 0.0 0.00 0.10 0.08 94 1013.0
20260507020030 8 0 0.0 0.0 0.00 0.10 0.08 94 1012.9
20260507015514 8 0 0.0 0.0 0.00 0.10 0.08 94 1012.9
20260507015432 8 0 0.0 0.0 0.00 0.10 0.08 94 1013.0
20260507015210 8 0 0.0 0.0 0.00 0.10 0.08 94 1013.0
20260507015137 8 0 0.0 0.0 0.00 0.10 0.08 94 1013.0
20260507015107 8 0 0.0 0.0 0.00 0.10 0.08 94 1013.0
20260507015036 8 0 0.0 0.0 0.00 0.10 0.08 94 1013.0
20260507014538 8 0 0.0 0.0 0.00 0.10 0.08 94 1013.0
20260507014014 8 0 0.0 0.0 0.00 0.10 0.08 94 1012.9
20260507013514 8 0 0.0 0.0 0.00 0.10 0.08 94 1012.9
20260507013030 8 0 0.0 0.0 0.00 0.10 0.08 94 1012.9
20260507012515 8 0 0.0 0.0 0.03 0.10 0.08 94 1013.0
20260507012014 8 0 0.0 0.0 0.03 0.10 0.08 94 1013.0
20260507011538 8 0 0.0 0.0 0.00 0.08 0.08 93 1013.0
20260507011015 8 0 0.0 0.0 0.03 0.08 0.08 94 1013.0
20260507010516 8 0 0.0 0.0 0.03 0.08 0.08 93 1013.1
20260507010030 8 0 0.0 0.0 0.05 0.08 0.08 93 1013.1
20260507005515 8 0 0.0 0.0 0.05 0.08 0.08 93 1013.1
20260507005015 8 0 0.0 0.0 0.05 0.08 0.08 93 1013.1
20260507004527 8 0 0.0 0.0 0.08 0.08 0.08 93 1013.1
20260507004011 8 0 0.0 0.0 0.08 0.08 0.08 93 1013.2
20260507003514 8 0 0.0 0.0 0.08 0.08 0.08 93 1013.2
20260507003032 8 0 0.0 0.0 0.08 0.08 0.08 93 1013.3
20260507002513 8 0 0.0 0.0 0.05 0.08 0.05 93 1013.2
20260507002013 8 0 0.0 0.0 0.05 0.08 0.05 93 1013.3
20260507001535 8 0 0.0 0.0 0.05 0.08 0.05 93 1013.3
20260507001013 8 0 0.0 0.0 0.03 0.05 0.03 93 1013.3
20260507000514 8 0 0.0 0.0 0.03 0.05 0.03 93 1013.4
20260507000030 8 0 0.0 0.0 0.00 0.03 0.00 93 1013.3
20260506235515 8 0 0.0 0.0 0.00 0.03 0.00 93 1013.3
20260506235013 8 0 0.0 0.0 0.00 0.03 0.00 93 1013.3
20260506234528 8 0 0.0 0.0 0.00 0.00 0.00 92 1013.3
20260506234015 8 0 0.0 0.0 0.00 0.00 0.00 93 1013.3
20260506233511 8 0 0.0 0.0 0.00 0.00 0.00 92 1013.4
20260506233032 8 0 0.0 0.0 0.00 0.00 0.00 92 1013.4
20260506232516 8 0 0.0 0.0 0.00 0.00 0.00 92 1013.4
20260506232010 8 0 0.0 0.0 0.00 0.00 0.00 92 1013.4
20260506231529 8 0 0.0 0.0 0.00 0.00 0.00 92 1013.4
20260506231014 8 0 0.0 0.0 0.00 0.00 0.00 92 1013.4
20260506230513 8 0 0.0 0.0 0.00 0.00 0.00 92 1013.3
20260506230031 8 0 0.0 0.0 0.00 0.00 0.00 92 1013.4
20260506225522 8 0 0.0 0.0 0.00 0.00 0.00 92 1013.3
20260506225014 8 0 0.0 0.0 0.00 0.00 0.00 92 1013.3
20260506224530 8 0 0.0 1.6 0.00 0.00 0.00 92 1013.2
20260506224013 8 0 0.0 1.6 0.00 0.00 0.00 92 1013.3
20260506223515 8 0 0.0 1.6 0.00 0.00 0.00 92 1013.2
20260506223030 8 130 0.0 0.0 0.00 0.00 0.00 91 1013.2
20260506222511 8 0 0.0 0.0 0.00 0.00 0.00 91 1013.2
20260506222015 8 0 0.0 0.0 0.00 0.00 0.00 91 1013.3
20260506221530 8 0 0.0 1.6 0.00 0.00 0.00 91 1013.3
20260506221013 8 0 0.0 1.6 0.00 0.00 0.00 91 1013.2
20260506220514 8 0 0.0 1.6 0.00 0.00 0.00 91 1013.2
20260506220038 8 0 0.0 0.0 0.00 0.00 0.00 91 1013.2
20260506215515 8 0 0.0 0.0 0.00 0.03 0.00 91 1013.2
20260506215014 8 0 0.0 0.0 0.00 0.03 0.00 90 1013.2
20260506214531 8 0 0.0 0.0 0.00 0.03 0.00 90 1013.2
20260506214012 8 0 0.0 0.0 0.00 0.03 0.00 90 1013.1
20260506213512 8 0 0.0 0.0 0.00 0.03 0.00 90 1013.2
20260506213032 9 0 0.0 1.6 0.00 0.03 0.00 90 1013.2
20260506212513 9 0 0.0 1.6 0.00 0.03 0.00 90 1013.2
20260506212014 9 0 0.0 0.0 0.00 0.03 0.00 89 1013.2
20260506211535 9 0 0.0 0.0 0.00 0.03 0.00 89 1013.2
20260506211013 9 0 0.0 1.6 0.00 0.03 0.00 89 1013.2
20260506210511 9 0 0.0 1.6 0.00 0.03 0.00 89 1013.2
20260506210027 9 0 0.0 1.6 0.00 0.03 0.00 89 1013.2
20260506205517 9 0 0.0 1.6 0.00 0.08 0.00 88 1013.2
20260506205013 9 0 0.0 0.0 0.00 0.08 0.00 88 1013.2
20260506204532 9 0 0.0 0.0 0.00 0.08 0.00 87 1013.2
20260506204015 9 0 0.0 0.0 0.00 0.08 0.00 87 1013.1
20260506203513 9 0 0.0 0.0 0.00 0.08 0.00 87 1013.1
20260506203029 9 0 0.0 0.0 0.00 0.08 0.00 87 1013.0
20260506202512 9 0 0.0 0.0 0.00 0.08 0.00 87 1013.0
20260506202011 9 0 0.0 0.0 0.00 0.08 0.00 87 1013.0
20260506201529 9 0 0.0 0.0 0.00 0.08 0.00 86 1012.9
20260506201012 9 0 0.0 0.0 0.00 0.08 0.00 87 1012.9
20260506200512 9 0 0.0 0.0 0.00 0.08 0.00 87 1012.9
20260506200030 9 0 0.0 0.0 0.00 0.08 0.00 86 1012.9
20260506195512 9 0 0.0 0.0 0.00 0.28 0.00 86 1012.7
20260506195028 9 0 0.0 0.0 0.00 0.28 0.00 86 1012.6
20260506194530 9 0 0.0 0.0 0.00 0.28 0.00 86 1012.6
20260506194012 9 0 0.0 0.0 0.00 0.28 0.00 85 1012.5
20260506193512 9 0 0.0 0.0 0.00 0.28 0.00 85 1012.4
20260506193033 9 0 0.0 0.0 0.00 0.28 0.00 85 1012.4
20260506192512 9 0 0.0 0.0 0.00 0.28 0.00 85 1012.4
20260506192011 9 0 0.0 0.0 0.00 0.28 0.00 84 1012.3
20260506191528 9 0 0.0 1.6 0.00 0.28 0.00 84 1012.2
20260506191011 9 0 0.0 1.6 0.00 0.28 0.00 84 1012.1
20260506190512 9 130 0.0 1.6 0.00 0.28 0.00 84 1012.0
20260506190032 9 0 0.0 1.6 0.00 0.28 0.00 84 1011.9
20260506185511 9 0 0.0 1.6 0.00 0.76 0.00 83 1011.8
20260506185016 9 71 0.0 1.6 0.00 0.76 0.00 83 1011.8
20260506184528 9 0 0.0 0.0 0.00 0.76 0.00 83 1011.7
20260506184013 10 0 0.0 0.0 0.00 0.76 0.00 82 1011.6
20260506183510 10 0 0.0 0.0 0.00 0.76 0.00 82 1011.7
20260506183029 10 0 0.0 0.0 0.00 0.76 0.00 81 1011.6
20260506182512 10 0 0.0 0.0 0.00 0.76 0.00 80 1011.6
20260506182011 10 0 0.0 0.0 0.00 0.76 0.00 79 1011.6
20260506181530 10 0 0.0 0.0 0.00 0.76 0.00 80 1011.6
20260506181014 10 0 0.0 0.0 0.00 0.76 0.00 80 1011.6
20260506180514 10 0 0.0 1.6 0.00 0.76 0.00 79 1011.6
20260506180032 10 0 0.0 1.6 0.00 0.76 0.00 78 1011.6
20260506175512 10 0 0.0 1.6 0.00 1.32 0.00 78 1011.4
20260506175013 10 0 0.0 0.0 0.00 1.32 0.00 77 1011.4
20260506174531 10 0 0.0 3.2 0.00 1.32 0.00 76 1011.4
20260506174014 10 0 0.0 3.2 0.00 1.32 0.00 76 1011.3
20260506173513 11 337 0.0 3.2 0.00 1.32 0.00 76 1011.3
20260506173030 11 0 0.0 3.2 0.00 1.32 0.00 76 1011.4
20260506172513 11 0 0.0 3.2 0.00 1.32 0.00 75 1011.3
20260506172015 11 352 0.0 3.2 0.00 1.32 0.00 74 1011.2
20260506171532 11 333 1.6 3.2 0.00 1.32 0.00 72 1011.3
20260506171011 12 0 0.0 3.2 0.00 1.32 0.00 72 1011.3
20260506170516 12 0 0.0 4.8 0.00 1.32 0.00 71 1011.3
20260506170027 12 360 1.6 9.7 0.00 1.32 0.00 71 1011.3
20260506165513 12 0 3.2 9.7 0.00 1.40 0.00 71 1011.3
20260506165017 12 38 3.2 8.0 0.00 1.40 0.00 72 1011.3
20260506164621 12 25 3.2 8.0 0.00 1.40 0.00 73 1011.3
20260506164116 12 256 3.2 6.4 0.00 1.40 0.00 73 1011.4
20260506164018 12 256 3.2 6.4 0.00 1.40 0.00 73 1011.4
20260506163512 12 13 0.0 8.0 0.00 1.40 0.00 76 1011.4
20260506163032 11 309 3.2 8.0 0.00 1.40 0.00 77 1011.4
20260506162517 11 59 1.6 8.0 0.00 1.40 0.00 76 1011.5